Weather in Yeltsy

Russia / Tver Oblast     56°39′46″N   33°50′53″E
temp.,
°C
wind,
m/s
gust,
m/s
humid.,
%
clouds,
%
prec.,
mm/h
press.,
hPa
HPBL,
m
15 april, thu
thu1500:00+7n4992100 0.5 1019412
03:00+6nne4993100 0.5 1019520
06:00+6nne41095100 0.2 1019535
09:00+6ne51092100 0.8 1020475
12:00+8ne51083100 0.2 1020655
15:00+10ne51076100 0.2 1020801
18:00+9ne61278100 0.0 1019823
21:00+7ene71582100 0.0 1020606
16 april, fri
fri1600:00+6ene61587100 0.0 1020619
03:00+6ene61489100 0.0 1020574
06:00+5ene51490100 0.0 1021608
09:00+6ene51286100 0.0 1022586
12:00+8ene51079100 0.0 1023694
15:00+11ene61070100 0.0 1023810
18:00+10ene61174100 0.0 1023987
21:00+9ene61376100 0.0 1023807
17 april, sat
sat1700:00+7ene51379100 0.0 1024667
03:00+6ene51376100 0.0 1025523
06:00+4ene51380100 0.0 1025472
09:00+6ene51074100 0.0 1026553
12:00+11ene5863100 0.0 1026926
15:00+12ene6856100 0.0 10261219
18:00+12ene595762 0.0 10251122
21:00+8ene41360100 0.0 1026545
18 april, sun
sun1800:00+6ene413695 0.0 1027478
03:00+4ene413770 0.0 1027394
06:00+3ene413810 0.0 1027364
09:00+7ene511620 0.0 1027665
12:00+11ene57465 0.0 10271274
15:00+12ene564198 0.0 10261664
18:00+11ene46515 0.0 10261558
21:00+7ene411675 0.0 1027384
19 april, mon
mon1900:00+5ene310779 0.0 1028279
03:00+3ene278552 0.0 1029157
06:00+3ene278766 0.0 1029160
09:00+8e366673 0.0 1029432
12:00+11e4652100 0.0 10281481
15:00+12e4548100 0.0 10271793
18:00+11ene365799 0.0 1027542
21:00+7ene397197 0.1 1028301